Regional Weather Roundup
Issued by NWS Burlington, VT

Home | Current Version | Previous Version | Text Only | Print | Product List | Glossary On
Versions: 1 2 3 4 5 6 7 8 9 10 11 12 13 14 15 16 17 18 19 20 21 22 23 24 25 26 27 28 29 30 31 32 33 34 35 36 37 38 39 40 41 42 43 44 45 46 47 48 49 50
000
ASUS41 KBTV 280230
RWRBTV
VERMONT REGIONAL WEATHER ROUNDUP
NATIONAL WEATHER SERVICE BURLINGTON VT
1000 PM EDT FRI MAY 27 2016

NOTE: "FAIR" INDICATES FEW OR NO CLOUDS BELOW 12,000 FEET WITH NO
SIGNIFICANT WEATHER AND/OR OBSTRUCTIONS TO VISIBILITY.

* THESE REPORTS ARE NOT UNDER NWS QUALITY CONTROL AND/OR DO NOT
  REPORT WEATHER SUCH AS PRECIPITATION AND FOG.

VTZ001>019-280300-
_____VERMONT_____


CITY           SKY/WX    TMP DP  RH WIND       PRES   REMARKS
BURLINGTON     FAIR      80  63  55 SW8       29.95R
MONTPELIER     FAIR      78  61  55 SW9       30.03R
MORRISVILLE    FAIR      71  63  75 S5        29.98R
ST. JOHNSBURY*   N/A     76  62  62 MISG      29.95R
LYNDONVILLE*   FAIR      73  63  71 CALM      30.01R
RUTLAND*       FAIR      77  65  66 VRB5      30.02R
SPRINGFIELD    FAIR      70  66  87 CALM      30.01R
HIGHGATE*      FAIR      76  64  67 W3        29.95R
NEWPORT*       FAIR      70  64  80 CALM      29.99R
BENNINGTON     FAIR      76  64  66 CALM      30.02R
SUTTON*          N/A     68 N/A N/A MISG        N/A
GALLUP MILLS*    N/A     70 N/A N/A MISG        N/A
UNION VILLAGE*   N/A     70 N/A N/A MISG        N/A
MT. MANSFIELD*   N/A     64 N/A N/A NW23        N/A

_____LAKE CHAMPLAIN_____


CITY           SKY/WX    TMP DP  RH WIND       PRES   REMARKS
BURTON ISLAND*   N/A     75  63  64 S9          N/A
COLCHESTER RF*   N/A     75  63  64 S9          N/A
DIAMOND ISL*     N/A     81  64  57 S9          N/A

$$

NYZ007-026>031-035-052-083-087-280300-
_____NORTHERN NEW YORK_____


CITY           SKY/WX    TMP DP  RH WIND       PRES   REMARKS
PLATTSBURGH    PTCLDY    77  62  59 SW3       29.94R
SARANAC LAKE   MOCLDY    72  61  68 W3        30.03R
MASSENA        CLOUDY    75  66  73 SW8       29.97R
OGDENSBURG*    CLEAR     73  66  78 SW3       29.97S
STARK FALLS*     N/A    109 N/A N/A W5          N/A
WATERTOWN      CLOUDY    71  66  84 S5        30.00R HAZE
ALBANY         MOCLDY    77  67  71 SE3       30.00R
GLENS FALLS    CLEAR     77  64  64 SW7       29.99R

$$
NHZ002-005-011-280300-
_____NEW HAMPSHIRE_____


CITY           SKY/WX    TMP DP  RH WIND       PRES   REMARKS
LEBANON        PTCLDY    75  66  73 S5        29.98R
MT WASHINGTON  FOG       54  54 100 SW39        N/A  VSB 0
PLYMOUTH       FAIR      66  64  92 CALM      30.01R
WHITEFIELD     PTCLDY    69  62  78 CALM      29.98R

$$

_____REGIONAL QUEBEC LOCATIONS_____


CITY           SKY/WX    TMP DP  RH WIND       PRES   REMARKS
MONTREAL       CLOUDY    75  68  78 W3        29.93R
QUEBEC CITY    PTCLDY    64  61  88 NE6       29.91R
SHERBROOKE     CLEAR     68  66  94 S5        29.95R

_____REGIONAL ONTARIO LOCATIONS_____


CITY           SKY/WX    TMP DP  RH WIND       PRES   REMARKS
OTTAWA         PTCLDY    75  66  73 SW6       29.95R

______KEY______
VSB  - VISIBILITY IN MILES
WCI  - WIND CHILL INDEX
HX   - HEAT INDEX
$$
NNNN




USA.gov is the U.S. government's official web portal to all federal, state and local government web resources and services.